Date String (YYYY-MM-DD hh:mm:ss) UTC,Instrument flags,absolute air pressure of the measurement (hPa),sample flow rate (lpm),inlet stack bypass flow (lpm),air temperature of the measurement (°C),ambient temperature measured by the external sensor (°C),aerosol sample conditioner tube jacket temperature (°C),OPC LED temperature (°C),internal box temperature (°C),relative humidity of the measurement (%),span deviation,mass concentration of particles derived from Lorenz-Mie calculation of OPC scattering (μg/m³),mass concentration of particles derived from Lorenz-Mie calculation of OPC scattering (μg/m³),mass concentration of particles derived from Lorenz-Mie calculation of OPC scattering (μg/m³)
DateTimeUTC,F1_M11,P_M11,Q1_M11,Q2_M11,T1_M11,T2_M11,T3_M11,T4_M11,T5_M11,U1_M11,ZSPAN_M11,X0_M11,X2_M11,X1_M11
2023-07-17 21:00:00,SystemResetWarning,0831.7,5.00,000.00,028.6,025.1,000.0,036.7,030.0,20.0,0000.0,0015.74,0005.55,0004.78
2023-07-17 21:01:00,SystemResetWarning,0831.6,5.02,000.00,028.5,025.0,000.0,036.6,030.0,20.3,0000.0,0015.79,0005.57,0004.78
2023-07-17 21:02:00,SystemResetWarning,0831.6,4.99,000.00,028.5,025.4,000.0,036.7,029.9,20.3,0000.0,0015.32,0005.59,0004.79
2023-07-17 21:03:00,SystemResetWarning,0831.6,4.99,000.00,028.4,025.8,000.0,036.7,029.9,20.8,0000.0,0014.78,0005.59,0004.80
2023-07-17 21:04:00,SystemResetWarning,0831.5,5.00,000.00,028.5,026.3,000.0,036.7,030.0,20.0,0000.0,0014.16,0005.54,0004.80
2023-07-17 21:05:00,SystemResetWarning,0831.5,5.01,000.00,028.5,026.7,000.0,036.8,030.2,20.1,0000.0,0013.95,0005.49,0004.81
2023-07-17 21:06:00,SystemResetWarning,0831.5,5.00,000.00,028.6,027.1,000.0,036.8,030.3,19.8,0000.0,0014.01,0005.48,0004.82
2023-07-17 21:07:00,SystemResetWarning,0831.5,4.99,000.00,028.6,027.2,000.0,036.8,030.4,18.9,0000.0,0014.38,0005.52,0004.84
2023-07-17 21:08:00,SystemResetWarning,0831.5,4.98,000.00,028.6,026.0,000.0,036.7,030.2,18.2,0000.0,0014.41,0005.52,0004.85
2023-07-17 21:09:00,SystemResetWarning,0831.5,5.01,000.00,028.6,024.9,000.0,036.7,030.0,18.1,0000.0,0013.87,0005.48,0004.85
2023-07-17 21:10:00,SystemResetWarning,0831.5,5.01,000.00,028.5,025.2,000.0,036.6,030.0,18.1,0000.0,0011.77,0005.41,0004.84
2023-07-17 21:11:00,SystemResetWarning,0831.5,4.98,000.00,028.5,025.6,000.0,036.7,029.9,18.2,0000.0,0012.40,0005.39,0004.83
2023-07-17 21:12:00,SystemResetWarning,0831.4,5.00,000.00,028.5,026.0,000.0,036.7,030.0,18.5,0000.0,0012.05,0005.38,0004.82
2023-07-17 21:13:00,SystemResetWarning,0831.4,5.01,000.00,028.5,026.4,000.0,036.8,030.2,18.2,0000.0,0012.38,0005.38,0004.81
2023-07-17 21:14:00,SystemResetWarning,0831.4,5.01,000.00,028.6,026.9,000.0,036.8,030.2,18.5,0000.0,0012.79,0005.38,0004.79
2023-07-17 21:15:00,SystemResetWarning,0831.4,4.99,000.00,028.6,027.1,000.0,036.8,030.3,18.8,0000.0,0013.04,0005.38,0004.78
2023-07-17 21:16:00,SystemResetWarning,0831.3,4.98,000.00,028.6,025.9,000.0,036.7,030.2,18.8,0000.0,0013.38,0005.35,0004.76
2023-07-17 21:17:00,SystemResetWarning,0831.3,5.03,000.00,028.5,024.9,000.0,036.7,030.0,19.4,0000.0,0013.26,0005.34,0004.74
2023-07-17 21:18:00,SystemResetWarning,0831.3,4.99,000.00,028.5,025.2,000.0,036.6,030.0,19.1,0000.0,0013.02,0005.30,0004.72
2023-07-17 21:19:00,SystemResetWarning,0831.3,4.99,000.00,028.5,025.5,000.0,036.7,029.9,18.6,0000.0,0013.45,0005.31,0004.71
2023-07-17 21:20:00,SystemResetWarning,0831.3,5.01,000.00,028.5,026.0,000.0,036.7,030.0,19.1,0000.0,0013.53,0005.30,0004.69
2023-07-17 21:21:00,SystemResetWarning,0831.3,5.01,000.00,028.5,026.4,000.0,036.8,030.1,18.9,0000.0,0013.02,0005.33,0004.68
2023-07-17 21:22:00,SystemResetWarning,0831.3,5.00,000.00,028.5,026.9,000.0,036.8,030.2,18.4,0000.0,0012.20,0005.37,0004.68
2023-07-17 21:23:00,SystemResetWarning,0831.3,5.00,000.00,028.6,027.2,000.0,036.8,030.3,18.7,0000.0,0011.99,0005.37,0004.66
2023-07-17 21:24:00,SystemResetWarning,0831.3,4.98,000.00,028.6,026.8,000.0,036.8,030.3,19.8,0000.0,0011.56,0005.32,0004.64
2023-07-17 21:25:00,SystemResetWarning,0831.3,5.00,000.00,028.6,025.3,000.0,036.7,030.1,20.6,0000.0,0012.39,0005.28,0004.62
2023-07-17 21:26:00,SystemResetWarning,0831.4,5.02,000.00,028.5,025.0,000.0,036.7,030.0,18.7,0000.0,0012.59,0005.25,0004.60
2023-07-17 21:27:00,SystemResetWarning,0831.3,5.00,000.00,028.5,025.4,000.0,036.7,029.9,18.9,0000.0,0012.32,0005.27,0004.58
2023-07-17 21:28:00,SystemResetWarning,0831.4,4.99,000.00,028.5,025.8,000.0,036.7,029.9,18.9,0000.0,0012.62,0005.29,0004.58
2023-07-17 21:29:00,SystemResetWarning,0831.5,5.01,000.00,028.5,026.3,000.0,036.8,030.1,18.9,0000.0,0013.30,0005.29,0004.56
2023-07-17 21:30:00,SystemResetWarning,0831.5,5.00,000.00,028.5,026.7,000.0,036.8,030.2,18.0,0000.0,0013.10,0005.24,0004.55
2023-07-17 21:31:00,SystemResetWarning,0831.6,5.00,000.00,028.6,027.1,000.0,036.8,030.3,18.2,0000.0,0013.27,0005.24,0004.53
2023-07-17 21:32:00,SystemResetWarning,0831.6,4.99,000.00,028.6,027.3,000.0,036.9,030.4,18.2,0000.0,0013.47,0005.21,0004.52
2023-07-17 21:33:00,SystemResetWarning,0831.5,4.99,000.00,028.7,026.1,000.0,036.8,030.3,18.0,0000.0,0013.47,0005.14,0004.50
2023-07-17 21:34:00,SystemResetWarning,0831.6,5.00,000.00,028.6,024.9,000.0,036.7,030.1,19.1,0000.0,0013.43,0005.10,0004.49
2023-07-17 21:35:00,SystemResetWarning,0831.5,5.01,000.00,028.5,025.1,000.0,036.7,030.0,20.3,0000.0,0013.97,0005.05,0004.47
2023-07-17 21:36:00,SystemResetWarning,0831.6,5.01,000.00,028.5,025.5,000.0,036.7,029.9,20.3,0000.0,0013.29,0005.04,0004.47
2023-07-17 21:37:00,SystemResetWarning,0831.6,4.99,000.00,028.5,026.0,000.0,036.8,030.0,19.8,0000.0,0013.62,0005.06,0004.48
2023-07-17 21:38:00,SystemResetWarning,0831.7,5.00,000.00,028.5,026.4,000.0,036.8,030.1,18.0,0000.0,0013.88,0005.08,0004.50
2023-07-17 21:39:00,SystemResetWarning,0831.7,5.01,000.00,028.6,026.8,000.0,036.8,030.2,17.9,0000.0,0013.51,0005.05,0004.51
2023-07-17 21:40:00,SystemResetWarning,0831.7,5.00,000.00,028.6,027.1,000.0,036.8,030.3,18.4,0000.0,0012.87,0005.01,0004.52
2023-07-17 21:41:00,SystemResetWarning,0831.6,4.98,000.00,028.6,026.0,000.0,036.8,030.2,18.0,0000.0,0012.35,0005.01,0004.54
2023-07-17 21:42:00,SystemResetWarning,0831.5,5.02,000.00,028.6,024.8,000.0,036.7,030.0,18.1,0000.0,0012.41,0005.01,0004.55
2023-07-17 21:43:00,SystemResetWarning,0831.5,5.00,000.00,028.5,025.1,000.0,036.7,029.9,18.5,0000.0,0012.11,0004.98,0004.56
2023-07-17 21:44:00,SystemResetWarning,0831.4,5.00,000.00,028.5,025.4,000.0,036.7,029.9,18.8,0000.0,0012.16,0004.98,0004.57
2023-07-17 21:45:00,SystemResetWarning,0831.3,5.00,000.00,028.5,025.9,000.0,036.7,030.0,19.7,0000.0,0012.01,0004.98,0004.59
2023-07-17 21:46:00,SystemResetWarning,0831.4,4.99,000.00,028.5,026.4,000.0,036.8,030.1,20.0,0000.0,0011.87,0005.03,0004.62
2023-07-17 21:47:00,SystemResetWarning,0831.4,5.00,000.00,028.5,026.8,000.0,036.8,030.2,21.3,0000.0,0011.16,0005.09,0004.65
2023-07-17 21:48:00,SystemResetWarning,0831.4,5.00,000.00,028.6,027.1,000.0,036.8,030.3,20.6,0000.0,0011.61,0005.14,0004.66
2023-07-17 21:49:00,SystemResetWarning,0831.4,4.99,000.00,028.6,026.8,000.0,036.8,030.3,21.4,0000.0,0011.21,0005.16,0004.66
2023-07-17 21:50:00,SystemResetWarning,0831.3,5.00,000.00,028.6,025.2,000.0,036.7,030.1,21.1,0000.0,0012.06,0005.19,0004.67
2023-07-17 21:51:00,SystemResetWarning,0831.3,5.02,000.00,028.5,024.8,000.0,036.7,030.0,19.8,0000.0,0013.28,0005.25,0004.69
2023-07-17 21:52:00,SystemResetWarning,0831.3,4.99,000.00,028.5,025.2,000.0,036.7,029.9,20.3,0000.0,0013.51,0005.27,0004.69
2023-07-17 21:53:00,SystemResetWarning,0831.2,5.01,000.00,028.5,025.6,000.0,036.7,029.9,19.7,0000.0,0013.56,0005.31,0004.69
2023-07-17 21:54:00,SystemResetWarning,0831.1,4.99,000.00,028.5,026.1,000.0,036.8,030.0,19.3,0000.0,0014.91,0005.39,0004.70
2023-07-17 21:55:00,SystemResetWarning,0831.2,5.00,000.00,028.5,026.5,000.0,036.8,030.2,19.7,0000.0,0014.73,0005.44,0004.71
2023-07-17 21:56:00,SystemResetWarning,0831.2,5.01,000.00,028.6,026.9,000.0,036.8,030.3,18.8,0000.0,0015.44,0005.44,0004.70
2023-07-17 21:57:00,SystemResetWarning,0831.3,5.01,000.00,028.6,027.2,000.0,036.8,030.3,18.9,0000.0,0016.48,0005.56,0004.69
2023-07-17 21:58:00,SystemResetWarning,0831.4,4.99,000.00,028.6,026.1,000.0,036.8,030.2,19.5,0000.0,0017.90,0005.66,0004.71
2023-07-17 21:59:00,SystemResetWarning,0831.4,5.00,000.00,028.6,024.9,000.0,036.7,030.0,21.4,0000.0,0018.69,0005.75,0004.70
